| time (UTC) | temp F | wind direction | speed knots | gust knots | rain 1hr in | rain 24hr in | rain mn in | humidity % | barometer mb |
| 20260507163702 | 68 | 200 | 6.1 | 0.0 | 0.00 | 0.00 | 0.00 | 40 | 1012.0 |
| 20260507153701 | 68 | 190 | 6.1 | 0.0 | 0.00 | 0.00 | 0.00 | 40 | 1011.0 |
| 20260507143702 | 77 | 160 | 6.1 | 0.0 | 0.00 | 0.00 | 0.00 | 27 | 1010.0 |
| 20260507133702 | 79 | 170 | 7.8 | 0.0 | 0.00 | 0.00 | 0.00 | 24 | 1010.0 |
| 20260507123702 | 79 | 180 | 7.8 | 0.0 | 0.00 | 0.00 | 0.00 | 24 | 1010.0 |
| 20260507113702 | 79 | 200 | 6.1 | 0.0 | 0.00 | 0.00 | 0.00 | 24 | 1010.0 |
| 20260507103702 | 70 | 170 | 7.8 | 0.0 | 0.00 | 0.00 | 0.00 | 35 | 1010.0 |
| 20260507093702 | 70 | 200 | 6.1 | 0.0 | 0.00 | 0.00 | 0.00 | 35 | 1011.0 |
| 20260507083702 | 70 | 190 | 7.8 | 0.0 | 0.00 | 0.00 | 0.00 | 35 | 1011.0 |
| 20260507073702 | 70 | 200 | 6.1 | 0.0 | 0.00 | 0.00 | 0.00 | 35 | 1010.0 |
| 20260507063701 | 70 | 220 | 6.1 | 0.0 | 0.00 | 0.00 | 0.00 | 35 | 1010.0 |
| 20260507053702 | 70 | 290 | 3.5 | 0.0 | 0.00 | 0.00 | 0.00 | 35 | 1011.0 |
| 20260507043702 | 70 | 260 | 7.8 | 0.0 | 0.00 | 0.00 | 0.00 | 35 | 1011.0 |
| 20260507033702 | 57 | 240 | 7.8 | 0.0 | 0.00 | 0.00 | 0.00 | 54 | 1010.0 |
| 20260507023702 | 57 | 210 | 3.5 | 0.0 | 0.00 | 0.00 | 0.00 | 54 | 1010.0 |
| 20260507013702 | 57 | 220 | 6.1 | 0.0 | 0.00 | 0.00 | 0.00 | 54 | 1010.0 |
| 20260507003702 | 57 | 190 | 6.1 | 0.0 | 0.00 | 0.00 | 0.00 | 54 | 1010.0 |
| 20260506233702 | 57 | 190 | 1.7 | 0.0 | 0.00 | 0.00 | 0.00 | 54 | 1010.0 |
| 20260506223702 | 57 | 190 | 6.1 | 0.0 | 0.00 | 0.00 | 0.00 | 54 | 1011.0 |
| 20260506213701 | 57 | 220 | 6.1 | 0.0 | 0.00 | 0.00 | 0.00 | 54 | 1011.0 |
| 20260506203702 | 57 | 210 | 6.1 | 0.0 | 0.00 | 0.00 | 0.00 | 54 | 1010.0 |
| 20260506193702 | 57 | 220 | 6.1 | 0.0 | 0.00 | 0.00 | 0.00 | 54 | 1011.0 |
| 20260506183702 | 64 | 210 | 9.6 | 0.0 | 0.00 | 0.00 | 0.00 | 42 | 1011.0 |
| 20260506173702 | 64 | 200 | 7.8 | 0.0 | 0.00 | 0.00 | 0.00 | 42 | 1012.0 |